Location: Feigenhofen
(48.4939°N, 10.7793°E)
Time: 16:14:06
(UTC+00:00)

CZ-2C R/B - Pass Details

Date: 26 May 2022
Orbit: 667 x 784 km, 98.3° (Epoch: 28 June)

Event Time Altitude Azimuth Distance (km) Brightness Sun altitude
Rises 02:31:27 0° 17° (NNE) 3,274 7.0 -7.6°
Reaches altitude 10° 02:33:52 10° 23° (NNE) 2,333 6.3 -7.3°
Maximum altitude 02:38:53 51° 99° (E) 952 3.3 -6.7°
Drops below altitude 10° 02:43:45 10° 176° (S) 2,257 4.6 -6.1°
Sets 02:46:03 0° 181° (S) 3,158 5.3 -5.9°
